Location: Ciochowice
(50.4289°N, 18.5217°E)
Time: 16:21:10
(UTC+01:00)

ISS - Pass Details

Date: 02 February 2019
Orbit: 403 x 411 km, 51.6° (Epoch: 23 February)

Event Time Altitude Azimuth Distance (km) Brightness Sun altitude
Rises 19:39:45 0° 286° (WNW) 2,341 1.3 -28.7°
Reaches altitude 10° 19:41:53 10° 281° (W) 1,479 0.0 -29.0°
Enters shadow 19:42:45 17° 276° (W) 1,148 -0.8 -29.2°
